Location:  
MeteoStar


Sort by weather type Sort by elevation Sort by visibility Sort from west to east north Sort from north to south Alphabetically Sort from strongest wind speed Sort from lowest to highest pressure Sort from highest to lowest dew point temperature Sort coolest temperatures to warmest Sort warm temperatures to coolest
 Metric

Current Observations for United Kingdom sorted from warmest to coolest

Scilly; Saint MaryS07:00ZNot Avail.50 44301018.2ENE 10 46101
Guernsey Airport06:20ZShowers nearby48 43251015.2NNE 9 44334
Alderney / Channel Island06:50ZPartly Cloudy48 41301015.2NNE 12 43232
Weybourne07:00ZNot Avail.47 4091013.7N 20 Gusting to 27 4068
Manston07:00ZLight Showers46 4281012NNW 15 Gusting to 25 40180
Norwich Weather Centre06:20ZClear46 39251013.1NNW 11 4145
Jersey Airport06:20ZPartly Cloudy46 43301014.2NNE 4 44275
Camborne07:00ZCloudy45 40121018.7ENE 4 43285
Bridlington Mrsc07:00ZNot Avail.45 39111015.4N 13 3949
Lydd Airport 06:20ZClear45 4381012.1NNW 14 399
Herstmonceux07:00ZClear43 40201013.2N 7 39170
Langdon Bay07:00ZNot Avail.43 43151011.5NNW 17 35383
Marham06:50ZPartly Cloudy43 4171014.2NW 14 3675
Lakenheath Royal Air Force Base06:56ZMostly Cloudy43 39301013.3NW 6 3932
Southend-On-Sea 06:20ZPartly Cloudy43 3981013.1NNW 8 3849
London City Airport06:20ZClear43 39301014.1WNW 7 3916
London / Gatwick Airport06:20ZClear43 39301014.2NNW 9 38203
Culdrose06:21ZPartly Cloudy43 41121018.3NE 6 39255
Shoeburyness07:00ZNot Avail.42 39251013.2NNW 14 356
Loftus Samos07:00ZNot Avail.42 40111016.7NNW 13 35190
Aberporth07:00ZNot Avail.42 40301018.9NNE 3 42436
Thorney Island07:00ZNot Avail.41 37301015.5NNW 7 3613
Saint Catherines Point07:00ZNot Avail.41 38201015.5WNW 8 3652
Isle Of Portland07:00ZNot Avail.41 39201016.5N 17 33173
Bedford07:00ZNot Avail.41 39201016.0NNW 12 34278
Wainfleet07:00ZNot Avail.41 39301015NW 10 359
Leconfield06:50ZPartly Cloudy41 39131015.1WNW 5 3819
Middle Wallop06:50ZClear41 3791016.3N 7 36298
Benson06:50ZMostly Cloudy41 3991016.2NNW 5 38206
Exeter Airport06:20ZClear41 39251017.2N 4 3898
Stansted Airport06:20ZCloudy41 39251014.3NNW 9 35347
Humberside06:20ZPartly Cloudy41 390.061016.2NW 11 34101
London / Heathrow Airport06:20ZClear41 3981015.2NW 4 3878
Shoreham Airport07:00ZNot Avail.41 38301014.0NNW 7 366
Southampton / Weather Centre06:20ZClear41 37301016.1N 3 4129
Mumbles07:00ZNot Avail.40 37171019.5NNW 6 36114
Milford Haven07:00ZNot Avail.40 39171018.7E 5 36144
Fylingdales07:00ZNot Avail.40 3711N 12 33859
Plymouth07:00ZNot Avail.40 37151018.7NNW 5 36164
Kenley07:00ZNot Avail.39 38151015N 10 32557
High Wicombe Hqstc07:00ZFog39 3911016.4NNW 5 35669
Aberdaron07:00ZNot Avail.39 37351019.7NE 6 35311
Rhyl07:00ZNot Avail.39 3871019.5WSW 1 39252
Fair Isle07:00ZClear39 34301016.7NW 9 33187
Holbeach07:00ZNot Avail.39 3971015.2NNW 12 329
Wittering07:00ZNot Avail.39 38151015.7NW 9 33275
Coningsby Royal Air Force Base06:50ZClear39 3791015.1NNW 7 3422
Northolt06:50ZClear39 37121015.2NW 5 35124
Odiham06:50ZMist39 3951015.4NNW 10 32403
Brize Norton06:20ZPartly Cloudy39 3771016.3N 6 35288
Wattisham06:50ZMostly Cloudy39 37131013.3NNW 10 32285
Mildenhall Royal Air Force Base06:45ZMostly Cloudy39 3981014.2NNW 8 3332
Leeds And Bradford06:20ZMostly Cloudy39 36301017.5N 7 34682
Farnborough06:20ZClear39 3671015.3NW 6 35213
Biggin Hill 06:20ZPartly Cloudy39 37301014.5NNW 10 32600
Bournemouth Airport06:20ZNot Avail.39 37301016.1NNW 7 3436
Luton Airport 06:20ZClear39 3961014.4NNW 12 32524
Bristol / Lulsgate 06:20ZMostly Cloudy39 3761017.5NNE 8 33620
Yeovilton06:50ZPartly Cloudy39 3771017.2W 6 3575
Birmingham / Airport06:20ZPartly Cloudy39 37181017.3NW 5 35324
Dunkeswell Aerodrome07:00ZNot Avail.38 3781018.2N 8 32826
Little Rissington07:00ZNot Avail.38 3781016.9N 13 30705
Nottingham Weather Centre07:00ZNot Avail.38 36201017.5NNW 8 32383
Fairford Royal Air Force Base06:56ZClear38 37131017.2NNW 5 34285
Larkhill07:00ZClear37 3781017NW 6 32433
Church Lawford07:00ZNot Avail.37 36101017.2NNW 6 32351
Pershore07:00ZMist37 3731018.2NNW 4 34104
Lake Vyrnwy07:00ZNot Avail.37 37251018.9N 5 331181
Bingley07:00ZNot Avail.37 35301018.4NW 6 32859
Baltasound07:00ZShowers37 3571016.5W 3 3749
Cranwell06:50ZClear37 3671016.3NNW 13 29219
Topcliffe Royal Air Force Base 06:50ZClear37 36101017.2NW 3 3791
Waddington06:50ZPartly Cloudy37 36101016.3NW 10 30223
Linton-On-Ouse07:00ZNot Avail.37 35131017.5WNW 9 3052
Leeming06:50ZClear37 34301017.2NW 8 31131
Tiree06:20ZClear37 32251019.1ESE 1 3739
Sumburgh Cape 06:20ZClear37 32451016.1N 2 3716
Shawbury06:50ZMostly Cloudy37 3771018.3NNW 4 34249
East Midlands06:20ZNot Avail.37 36131016.3NNW 6 32308
Tees-Side06:20ZClear37 34131017.2NNW 11 29121
Hawarden06:20ZPartly Cloudy37 36131019.1NW 5 3332
Blackpool Airport06:20ZNot Avail.37 340.061019.1NE 6 3232
Liverpool Airport 06:20ZNot Avail.37 3661018.2N 4 3485
Cardiff-Wales Airport06:20ZMostly Cloudy37 3671018.2NW 7 32219
Lyneham07:00ZNot Avail.37 3651017.5N 7 32475
Aultbea07:00ZNot Avail.36 34251019.2SE 5 3236
Lerwick07:00ZClear36 33451016.5NNW 5 32269
Boulmer06:50ZClear36 32201018.2W 9 2975
Aberdeen / Dyce06:20ZClear36 30251018.3WNW 12 28213
Valley06:50ZClear36 34251019.1NE 3 363
Pembrey Sands06:50ZClear36 34121018.1E 4 339
Boscombe Down06:50ZClear36 3691016.4NW 6 31406
Cardinham07:00ZMist35 3441019NNE 6 30656
Liscombe07:00ZNot Avail.35 34151018.7N 9 281141
Capel Curig07:00ZNot Avail.35 35451020NE 2 35708
Walney Island07:00ZNot Avail.35 34301019.0NE 3 3549
Chivenor07:00ZHaze35 3351019.0SSE 2 3526
Charterhall07:00ZNot Avail.34 29301018.5NW 7 28367
Wick06:20ZMostly Cloudy34 32251018.2NNW 6 29127
Kirkwall Airport06:20ZClear34 30451017.2WNW 2 3468
Newcastle 06:20ZNot Avail.34 34131018.3W 6 29265
Isle Of Man / Ronaldsway Airport06:20ZNot Avail.34 30131019.2N 6 2955
Shobdon07:00ZNot Avail.33 3341018.9WNW 3 33324
Dundrennan07:00ZNot Avail.33 31191018.7N 5 28374
Glenanne07:00ZNot Avail.32 31251019.5N 2 32528
Portglenone07:00ZNot Avail.32 32191019.2ESE 2 32209
Saint Bees Head07:00ZNot Avail.32 29131019.5ENE 5 27406
South Uist Range07:00ZNot Avail.32 28451019SSE 5 2732
Lossiemouth06:50ZNot Avail.32 30251019.2SW 9 2442
Leuchars06:50ZNot Avail.32 28251019.2W 7 2539
Kinloss06:50ZClear32 30301019.1WSW 7 2522
Scatsa / Shetland Island06:20ZNot Avail.32 300.181016.2CALM3272
Benbecula06:20ZClear32 280.181019.1N 1 3219
Manchester Airport06:20ZClear32 32181018.3N 3 32226
Ballypatrick Forest07:00ZNot Avail.31 30201020E 1 31511
Sennybridge07:00ZNot Avail.31 3171019.9SSW 1 311007
Crosby07:00ZMist31 3131019.0NE 4 2726
Glen Ogle07:00ZNot Avail.30 2625N 5 251850
Machrihanish07:00ZNot Avail.30 28201019.2ESE 5 2542
Stornoway06:20ZClear30 28201019.1N 1 3029
Inverness / Dalcross06:20ZClear30 28251020.1SW 7 2329
Belfast / Harbour06:20ZClear30 30181019.1S 3 3016
Trawscoed07:00ZMist29 2971019.4CALM29206
Warcop Range07:00ZClear29 290.061019.7CALM29744
Redesdale07:00ZNot Avail.28 26301019.5N 2 28692
Great Dun Fell07:00ZNot Avail.28 270.06NNE 9 192778
Spadeadam07:00ZNot Avail.28 27251019.5NW 4 23935
Prestwick Rnas07:00ZNot Avail.28 28251019.2E 8 2085
Tain Range07:00ZNot Avail.28 27301019.2SSW 5 2213
Dundee / Riverside06:20ZClear28 230.181019.1WNW 3 2813
Spadeadam06:50ZClear28 27131018.0NW 4 231066
Eglinton / Londonderr06:20ZNot Avail.28 28181019.1WSW 4 2329
Keswick07:00ZClear27 270.061020CALM27265
Prestwick Airport06:20ZClear27 250.181020.2CALM2765
Carlisle06:50ZFog27 270.061019.2N 1 2785
Carlisle07:00ZNot Avail.26 261.871019.7N 2691
Loch Glascanoch07:00ZLight Freezing Rain26 25251020.5S 2 26869
West Freugh07:00ZNot Avail.26 25301019.2NNW 3 2636
Shap07:00ZNot Avail.25 24101020.2CALM25816
Eskdalemuir07:00ZNot Avail.25 24301020.5NW 2 25793
Cairnwell07:00ZNot Avail.25 2425N 13 133061
Altnaharra07:00ZNot Avail.25 24251019.5NW 2 25265
Edinburgh Airport06:20ZNot Avail.25 250.181019.3WSW 4 20134
Belfast / Aldergrove Airport06:20ZNot Avail.25 23181019.4E 2 25265
Aviemore07:00ZNot Avail.24 23251020.7W 1 24721
Castlederg07:00ZNot Avail.23 22101020.0NW 1 23167
Drumalbin07:00ZNot Avail.23 2291020.4SE 2 23803
Strathallan07:00ZNot Avail.23 22251019.7W 2 23114
Aboyne07:00ZNot Avail.23 21201019.7E 2 23459
Cairngorm07:00ZNot Avail.23 2225N Gusting to 0 234084
Aonach Mor07:00ZNot Avail.22 2025N Gusting to 0 223707
Glasgow Airport06:20ZFog21 190.181020.1SSW 1 2126
Tulloch Bridge07:00ZNot Avail.18 16251021.7CALM18777

Atlantic
Tropical Watch